Main page
METAR-TAF:

METAR-TAF

Airports :

Kota Airport

Kota, India

latitude: 25-09-36N, longitude: 075-50-44E, elevation: 273 m

Current weather observation

The report was made 4 hours and 19 minutes ago, at 06:00 UTC
Wind 1 kt from the Southeast
Temperature 28°C
Humidity 37%
Pressure 1016 hPa
Visibility: 2000 m
haze

METAR: VIKO 190600Z 14001KT 2000 HZ NSC 28/12 Q1016 NOSIG

Time: 15:49 (10:19 UTC)


TAF: missing

Weather observations and forecasts of more than 4000 airports (METAR and TAF reports).

The available stations are represented by yellow and red dots on the map.

Hover mouse over dot to see the name of the station.

Then click to see weather observations and forecasts.

To change the map : click on the green buttons with a black cross to zoom in, on the green button with a dash to zoom out, or on the green arrows for adjacent maps.


METAR-TAF: